Weather History for Elizabethtown, NC

Change the Weather History Date:

Tuesday, February 21, 2012

  Actual Average (KILM) Record (KILM)
Temperature  
Mean Temperature 47 °F 50 °F  
Max Temperature 62 °F 61 °F 78 °F (2014)
Min Temperature 32 °F 39 °F 12 °F (1896)
Degree Days  
Heating Degree Days 18 15  
Month to date heating degree days 352  
Since 1 July heating degree days 1827  
Cooling Degree Days 0 0  
Month to date cooling degree days 0  
Year to date cooling degree days 2  
Moisture  
Dew Point 38 °F    
Average Humidity 78    
Maximum Humidity 100    
Minimum Humidity 54    
Precipitation  
Precipitation 0.00 in 0.13 in 3.23 in (1888)
Month to date precipitation 2.69  
Year to date precipitation 6.45  
Snow  
Snow 0.00 in 0.00 in 3.50 in (1936)
Month to date snowfall 0.2  
Since 1 July snowfall 1.4  
Snow Depth -    
Sea Level Pressure  
Sea Level Pressure 30.23 in    
Wind  
Wind Speed 2 mph (SSE)    
Max Wind Speed 10 mph    
Max Gust Speed -    
Visibility 10 miles    
Events      
T = Trace of Precipitation, MM = Missing Value Source: NWS Daily Summary

Daily Weather History Graph

Daily Weather History Graph

Search for Another Location

Airport:

Trip Planner

Search our weather history database for the weather conditions in past years. The results will help you decide how hot, cold, wet, or windy it might be!

Date:

Astronomy

Feb. 21, 2012 Rise Set
Actual Time 6:53 AM EST 6:02 PM EST
Civil Twilight 6:28 AM EST 6:28 PM EST
Nautical Twilight 5:58 AM EST 6:57 PM EST
Astronomical Twilight 5:29 AM EST 7:26 PM EST
Moon 6:22 AM EST 6:04 PM EST
Length of Visible Light 12h 00m
Length of Day
11h 08m
Waning Crescent, 0% of the Moon is Illuminated
Feb 21
Waning Crescent
Feb 21
New
Feb 29
First Quarter
Mar 8
Full
Mar 14
Last Quarter

Hourly Weather History & Observations

Time (EST) Temp. Windchill Dew Point Humidity Pressure Visibility Wind Dir Wind Speed Gust Speed Precip Events Conditions
12:15 AM 33.8 °F - 32.0 °F 93% 30.35 in 10.0 mi Calm Calm - N/A   Clear
12:35 AM 32.0 °F - 30.2 °F 93% 30.35 in 10.0 mi Calm Calm - N/A   Clear
12:55 AM 33.8 °F - 28.4 °F 81% 30.35 in 10.0 mi Calm Calm - N/A   Clear
1:15 AM 33.8 °F - 28.4 °F 81% 30.35 in 10.0 mi Calm Calm - N/A   Clear
1:35 AM 35.6 °F - 28.4 °F 75% 30.35 in 10.0 mi Calm Calm - N/A   Clear
1:55 AM 33.8 °F - 28.4 °F 81% 30.35 in 10.0 mi Calm Calm - N/A   Clear
2:15 AM 33.8 °F - 30.2 °F 87% 30.34 in 10.0 mi Calm Calm - N/A   Clear
2:35 AM 33.8 °F - 30.2 °F 87% 30.33 in 10.0 mi Calm Calm - N/A   Clear
2:55 AM 33.8 °F - 28.4 °F 81% 30.33 in 10.0 mi Calm Calm - N/A   Clear
3:15 AM 33.8 °F - 28.4 °F 81% 30.32 in 10.0 mi Calm Calm - N/A   Clear
3:35 AM 33.8 °F - 28.4 °F 81% 30.32 in 10.0 mi Calm Calm - N/A   Clear
3:55 AM 33.8 °F - 30.2 °F 87% 30.32 in 10.0 mi Calm Calm - N/A   Clear
4:15 AM 32.0 °F - 30.2 °F 93% 30.31 in 10.0 mi Calm Calm - N/A   Clear
4:35 AM 32.0 °F - 30.2 °F 93% 30.31 in 10.0 mi Calm Calm - N/A   Clear
4:55 AM 32.0 °F - 30.2 °F 93% 30.30 in 10.0 mi Calm Calm - N/A   Clear
5:15 AM 32.0 °F - 30.2 °F 93% 30.30 in 10.0 mi Calm Calm - N/A   Clear
5:35 AM 32.0 °F 28.7 °F 32.0 °F 100% 30.30 in 10.0 mi East 3.5 mph - N/A   Clear
5:55 AM 33.8 °F 30.8 °F 32.0 °F 93% 30.30 in 10.0 mi East 3.5 mph - N/A   Clear
6:15 AM 33.8 °F 29.6 °F 32.0 °F 93% 30.30 in 10.0 mi East 4.6 mph - N/A   Clear
6:35 AM 32.0 °F - 32.0 °F 100% 30.30 in 10.0 mi Calm Calm - N/A   Clear
6:55 AM 32.0 °F - 32.0 °F 100% 30.30 in 10.0 mi Calm Calm - N/A   Clear
7:15 AM 32.0 °F - 32.0 °F 100% 30.32 in 10.0 mi Calm Calm - N/A   Scattered Clouds
7:35 AM 32.0 °F - 32.0 °F 100% 30.33 in 10.0 mi Calm Calm - N/A   Mostly Cloudy
7:55 AM 33.8 °F - 32.0 °F 93% 30.34 in 10.0 mi Calm Calm - N/A   Mostly Cloudy
8:15 AM 33.8 °F - 32.0 °F 93% 30.34 in 10.0 mi Calm Calm - N/A   Mostly Cloudy
8:35 AM 35.6 °F 32.8 °F 30.2 °F 81% 30.33 in 10.0 mi East 3.5 mph - N/A   Scattered Clouds
9:15 AM 37.4 °F 33.8 °F 32.0 °F 81% 30.34 in 10.0 mi ESE 4.6 mph - N/A   Clear
9:35 AM 41.0 °F 39.0 °F 32.0 °F 70% 30.34 in 10.0 mi East 3.5 mph - N/A   Scattered Clouds
9:55 AM 42.8 °F 41.1 °F 32.0 °F 66% 30.35 in 10.0 mi East 3.5 mph - N/A   Mostly Cloudy
10:15 AM 44.6 °F - 32.0 °F 61% 30.34 in 10.0 mi Calm Calm - N/A   Mostly Cloudy
10:35 AM 46.4 °F - 32.0 °F 57% 30.33 in 10.0 mi Calm Calm - N/A   Mostly Cloudy
10:55 AM 48.2 °F - 33.8 °F 58% 30.31 in 10.0 mi SE 3.5 mph - N/A   Mostly Cloudy
11:15 AM 50.0 °F - 33.8 °F 54% 30.31 in 10.0 mi ESE 3.5 mph - N/A   Mostly Cloudy
11:35 AM 50.0 °F - 33.8 °F 54% 30.30 in 10.0 mi Calm Calm - N/A   Mostly Cloudy
11:55 AM 51.8 °F - 35.6 °F 54% 30.29 in 10.0 mi SE 3.5 mph - N/A   Mostly Cloudy
12:15 PM 51.8 °F - 37.4 °F 58% 30.27 in 10.0 mi Calm Calm - N/A   Mostly Cloudy
12:35 PM 53.6 °F - 37.4 °F 54% 30.25 in 10.0 mi SSE 3.5 mph - N/A   Mostly Cloudy
12:55 PM 55.4 °F - 41.0 °F 58% 30.24 in 10.0 mi SSE 5.8 mph - N/A   Scattered Clouds
1:15 PM 55.4 °F - 41.0 °F 58% 30.22 in 10.0 mi SSE 4.6 mph - N/A   Mostly Cloudy
1:35 PM 55.4 °F - 41.0 °F 58% 30.20 in 10.0 mi SSE 4.6 mph - N/A   Overcast
1:55 PM 57.2 °F - 42.8 °F 59% 30.18 in 10.0 mi South 6.9 mph - N/A   Mostly Cloudy
2:15 PM 59.0 °F - 44.6 °F 59% 30.17 in 10.0 mi SSE 8.1 mph - N/A   Scattered Clouds
2:35 PM 60.8 °F - 44.6 °F 55% 30.16 in 10.0 mi South 6.9 mph - N/A   Mostly Cloudy
2:55 PM 59.0 °F - 44.6 °F 59% 30.15 in 10.0 mi South 9.2 mph - N/A   Mostly Cloudy
3:55 PM 59.0 °F - 46.4 °F 63% 30.11 in 10.0 mi South 5.8 mph - N/A   Overcast
4:15 PM 60.8 °F - 46.4 °F 59% 30.10 in 10.0 mi South 6.9 mph - N/A   Overcast
4:35 PM 60.8 °F - 48.2 °F 63% 30.09 in 10.0 mi South 9.2 mph - N/A   Scattered Clouds
4:55 PM 62.6 °F - 50.0 °F 63% 30.09 in 10.0 mi South 10.4 mph - N/A   Scattered Clouds
5:15 PM 60.8 °F - 50.0 °F 68% 30.08 in 10.0 mi SSW 9.2 mph - N/A   Clear
5:35 PM 60.8 °F - 50.0 °F 68% 30.07 in 10.0 mi South 9.2 mph - N/A   Scattered Clouds
5:55 PM 59.0 °F - 50.0 °F 72% 30.07 in 10.0 mi South 10.4 mph - N/A   Scattered Clouds
6:15 PM 59.0 °F - 50.0 °F 72% 30.07 in 10.0 mi South 6.9 mph - N/A   Scattered Clouds
6:35 PM 57.2 °F - 50.0 °F 77% 30.07 in 10.0 mi SSW 4.6 mph - N/A   Clear
6:55 PM 55.4 °F - 50.0 °F 82% 30.06 in 10.0 mi South 5.8 mph - N/A   Clear
7:15 PM 55.4 °F - 50.0 °F 82% 30.06 in 10.0 mi South 5.8 mph - N/A   Clear
7:35 PM 53.6 °F - 50.0 °F 88% 30.06 in 10.0 mi South 4.6 mph - N/A   Clear
7:55 PM 53.6 °F - 50.0 °F 88% 30.05 in 10.0 mi South 5.8 mph - N/A   Clear
8:15 PM 53.6 °F - 50.0 °F 88% 30.05 in 10.0 mi South 4.6 mph - N/A   Clear
8:35 PM 51.8 °F - 50.0 °F 94% 30.06 in 10.0 mi South 4.6 mph - N/A   Clear
8:55 PM 51.8 °F - 51.8 °F 100% 30.06 in 10.0 mi South 5.8 mph - N/A   Clear
9:15 PM 51.8 °F - 51.8 °F 100% 30.06 in 10.0 mi SSW 6.9 mph - N/A   Clear
9:35 PM 51.8 °F - 51.8 °F 100% 30.05 in 10.0 mi SSW 5.8 mph - N/A   Clear
9:55 PM 51.8 °F - 51.8 °F 100% 30.05 in 10.0 mi SSW 5.8 mph - N/A   Clear
10:15 PM 51.8 °F - 51.8 °F 100% 30.06 in 7.0 mi SSW 5.8 mph - N/A   Clear
10:35 PM 51.8 °F - 51.8 °F 100% 30.06 in 7.0 mi SSW 4.6 mph - N/A   Clear
11:15 PM 51.8 °F - 51.8 °F 100% 30.05 in 7.0 mi SSW 5.8 mph - N/A   Clear
11:35 PM 51.8 °F - 51.8 °F 100% 30.05 in 5.0 mi SSW 4.6 mph - N/A   Clear
11:55 PM 51.8 °F - 51.8 °F 100% 30.05 in 5.0 mi SSW 5.8 mph - N/A   Clear